Location: Newark
(42.9858°N, 0.6717°E)
Time: 01:30:42
(UTC+00:00)

S-56A Canister/Altair - Pass Details

Date: 27 November 2019
Orbit: 633 x 2499 km, 38.9° (Epoch: 06 December)

Event Time Altitude Azimuth Distance (km) Brightness Sun altitude
Rises 17:06:22 0° 268° (W) 5,651 13.5 -7.6°
Reaches altitude 10° 17:10:30 10° 267° (W) 4,401 12.8 -8.3°
Maximum altitude 17:21:41 68° 188° (S) 1,539 9.1 -10.2°
Drops below altitude 10° 17:28:56 10° 107° (ESE) 2,932 10.0 -11.5°
Enters shadow 17:29:27 - 106° (ESE) 3,100 10.1 -11.5°
Sets 17:31:11 0° 104° (ESE) 3,693 - -11.8°
